EW9592 Weather Reports


Display with metric or nautical units.
time (UTC)temp
F
wind
direction
speed
MPH
gust
MPH
rain 1hr
in
rain 24hr
in
rain mn
in
humidity
%
barometer
mb
20260903001529 82 174 0.0 0.0 0.00 0.00 0.00 88 1016.1
20260903000027 83 175 0.0 0.0 0.00 0.00 0.00 87 1016.1
20260902234536 84 174 0.0 0.0 0.00 0.00 0.00 86 1016.0
20260902233026 85 172 0.0 0.0 0.00 0.00 0.00 85 1016.1
20260902231537 85 174 0.0 0.0 0.00 0.00 0.00 84 1016.2
20260902230031 86 174 0.0 0.0 0.00 0.00 0.00 83 1016.2
20260902224525 87 174 0.0 0.0 0.00 0.00 0.00 82 1016.2
20260902223024 87 136 0.0 0.0 0.00 0.00 0.00 81 1016.1
20260902221522 89 136 0.0 0.0 0.00 0.00 0.00 77 1016.2
20260902220021 90 136 0.0 0.0 0.00 0.00 0.00 74 1016.3
20260902214521 90 136 0.0 1.0 0.00 0.00 0.00 71 1016.3
20260902213019 90 148 0.0 1.0 0.00 0.00 0.00 73 1016.4
20260902211521 89 153 0.0 0.0 0.00 0.00 0.00 76 1016.5
20260902210017 89 153 0.0 2.0 0.00 0.00 0.00 74 1016.6
20260902204516 87 159 0.0 0.0 0.00 0.00 0.00 80 1016.7
20260902203015 87 255 0.0 0.0 0.00 0.00 0.00 82 1016.8
20260902201513 86 255 0.0 0.0 0.00 0.00 0.00 82 1016.9
20260902200012 87 255 0.0 1.0 0.00 0.00 0.00 82 1017.0
20260902194512 87 253 0.0 0.0 0.00 0.00 0.00 80 1017.2
20260902193010 88 255 0.0 0.0 0.00 0.00 0.00 78 1017.2
20260902191509 89 251 0.0 0.0 0.00 0.00 0.00 75 1017.5
20260902190007 91 249 0.0 3.0 0.00 0.00 0.00 70 1017.7
20260902184506 92 134 0.0 1.0 0.00 0.00 0.00 64 1017.7
20260902183011 93 224 0.0 3.0 0.00 0.00 0.00 60 1017.8
20260902181504 92 246 0.0 4.0 0.00 0.00 0.00 61 1017.8
20260902180005 92 34 0.0 2.0 0.00 0.00 0.00 61 1017.9
20260902174502 92 295 0.0 1.0 0.00 0.00 0.00 63 1018.1
20260902173059 92 15 0.0 1.0 0.00 0.00 0.00 61 1018.3
20260902171559 92 143 0.0 2.0 0.00 0.00 0.00 63 1018.5
20260902170058 92 105 0.0 3.0 0.00 0.00 0.00 62 1018.7
20260902164558 92 136 0.0 4.0 0.00 0.00 0.00 61 1018.8
20260902163103 91 4 0.0 2.0 0.00 0.00 0.00 62 1019.0
20260902161555 91 108 0.0 3.0 0.00 0.00 0.00 68 1019.1
20260902160055 90 111 1.0 5.0 0.00 0.00 0.00 66 1019.2
20260902154546 89 148 0.0 0.0 0.00 0.00 0.00 74 1019.2
20260902153041 87 213 0.0 0.0 0.00 0.00 0.00 76 1019.1
20260902151538 85 131 0.0 0.0 0.00 0.00 0.00 81 1019.1
20260902150033 83 217 0.0 0.0 0.00 0.00 0.00 84 1019.2
20260902144534 82 96 0.0 0.0 0.00 0.00 0.00 86 1019.4
20260902143025 80 65 0.0 0.0 0.00 0.00 0.00 90 1019.4
20260902141524 78 57 0.0 0.0 0.00 0.00 0.00 91 1019.3
20260902140019 77 129 0.0 0.0 0.00 0.00 0.00 92 1019.3
20260902134529 75 134 0.0 0.0 0.00 0.00 0.00 92 1019.4
20260902133009 74 134 0.0 0.0 0.00 0.00 0.00 92 1019.3
20260902131509 73 134 0.0 0.0 0.00 0.00 0.00 92 1019.3
20260902130005 72 134 0.0 0.0 0.00 0.00 0.00 92 1019.3
20260902124505 71 134 0.0 0.0 0.00 0.00 0.00 92 1019.3
20260902123003 70 134 0.0 0.0 0.00 0.00 0.00 92 1019.1
20260902121501 70 134 0.0 0.0 0.00 0.00 0.00 92 1018.9
20260902120002 70 134 0.0 0.0 0.00 0.00 0.00 92 1018.9
20260902114559 69 134 0.0 0.0 0.00 0.00 0.00 92 1018.8
20260902113105 69 134 0.0 0.0 0.00 0.00 0.00 92 1018.5
20260902111556 69 134 0.0 0.0 0.00 0.00 0.00 92 1018.5
20260902110057 69 134 0.0 0.0 0.00 0.00 0.00 92 1018.5
20260902104556 70 134 0.0 0.0 0.00 0.00 0.00 92 1018.4
20260902103052 70 134 0.0 0.0 0.00 0.00 0.00 92 1018.2
20260902101600 70 134 0.0 0.0 0.00 0.00 0.00 92 1018.1
20260902100105 70 134 0.0 0.0 0.00 0.00 0.00 92 1018.1
20260902094548 70 134 0.0 0.0 0.00 0.00 0.00 92 1018.1
20260902093050 70 134 0.0 0.0 0.00 0.00 0.00 92 1017.8
20260902091545 70 134 0.0 0.0 0.00 0.00 0.00 92 1017.7
20260902090044 70 134 0.0 0.0 0.00 0.00 0.00 92 1017.6
20260902084556 70 134 0.0 0.0 0.00 0.00 0.00 92 1017.6
20260902083046 70 134 0.0 0.0 0.00 0.00 0.00 92 1017.7
20260902081548 71 134 0.0 0.0 0.00 0.00 0.00 92 1017.5
20260902080041 71 134 0.0 0.0 0.00 0.00 0.00 92 1017.4
20260902074540 71 134 0.0 0.0 0.00 0.00 0.00 91 1017.3
20260902073049 71 134 0.0 0.0 0.00 0.00 0.00 91 1017.3
20260902071540 71 134 0.0 0.0 0.00 0.00 0.00 91 1017.3
20260902070039 71 134 0.0 0.0 0.00 0.00 0.00 91 1017.3
20260902064547 71 134 0.0 0.0 0.00 0.00 0.00 91 1017.4
20260902063046 71 134 0.0 0.0 0.00 0.00 0.00 91 1017.5
20260902061534 72 134 0.0 0.0 0.00 0.00 0.00 91 1017.5
20260902060035 72 134 0.0 0.0 0.00 0.00 0.00 91 1017.6
20260902054536 72 134 0.0 0.0 0.00 0.00 0.00 91 1017.5
20260902053031 72 134 0.0 0.0 0.00 0.00 0.00 91 1017.6
20260902051530 72 134 0.0 0.0 0.00 0.00 0.00 91 1017.5
20260902050028 72 134 0.0 0.0 0.00 0.00 0.00 91 1017.5
20260902044527 73 134 0.0 0.0 0.00 0.00 0.00 91 1017.4
20260902043025 73 134 0.0 0.0 0.00 0.00 0.00 91 1017.5
20260902041525 73 134 0.0 0.0 0.00 0.00 0.00 91 1017.5
20260902040024 73 134 0.0 0.0 0.00 0.00 0.00 91 1017.4
20260902034524 73 134 0.0 0.0 0.00 0.00 0.00 91 1017.4
20260902033021 73 134 0.0 0.0 0.00 0.00 0.00 91 1017.5
20260902031520 74 134 0.0 0.0 0.00 0.00 0.00 91 1017.5
20260902030019 74 134 0.0 0.0 0.00 0.00 0.00 91 1017.5
20260902024520 74 134 0.0 0.0 0.00 0.00 0.00 90 1017.5
20260902023019 75 134 0.0 0.0 0.00 0.00 0.00 90 1017.4
20260902021518 75 134 0.0 0.0 0.00 0.00 0.00 90 1017.4
20260902020021 76 134 0.0 0.0 0.00 0.00 0.00 90 1017.4
20260902014531 76 134 0.0 0.0 0.00 0.00 0.00 90 1017.3
20260902013018 77 134 0.0 0.0 0.00 0.00 0.00 89 1017.3
20260902011534 77 134 0.0 0.0 0.00 0.00 0.00 89 1017.1
20260902010016 78 134 0.0 0.0 0.00 0.00 0.00 89 1016.9
20260902004514 79 134 0.0 0.0 0.00 0.00 0.00 89 1016.8
20260902003014 80 134 0.0 0.0 0.00 0.00 0.00 88 1016.7